SCP
0 0 0 0 0 0 0 0 0 0 0 0 0 0 0 0 0 0 0 0 0 0 0 0 0 0 0 1 1 1 1 1 0 0 0 0 0 0 0 0 0 0 0 0
0 0 0 0 0 0 0 0 0 0 0 0 0 0 0 0 0 0 0 0 0 0 0 0 0 0 0 1 1 1 1 1 1 0 0 0 0 0 0 0 0 0 0 0
0 0 0 0 0 0 0 0 0 0 0 0 0 0 0 0 0 0 0 0 0 0 0 0 0 0 0 1 1 1 1 1 1 1 0 0 0 0 0 0 0 0 0 0
0 0 0 0 0 0 0 0 0 0 0 0 0 0 0 0 0 0 0 0 0 0 0 0 0 1 1 1 1 1 1 1 1 1 1 0 0 0 0 0 0 0 0 0
0 0 0 0 0 0 0 0 0 0 0 0 0 0 0 0 0 0 0 0 0 0 0 0 1 1 1 1 1 1 1 1 1 1 1 1 0 0 0 0 0 0 0 0
0 0 0 0 0 0 0 0 0 0 0 0 0 0 0 0 0 0 0 0 0 0 0 0 1 1 1 1 1 1 1 1 1 1 1 1 1 1 0 0 0 0 0 0
0 0 0 0 0 0 0 0 0 0 0 0 0 0 0 0 0 0 0 0 0 0 0 1 1 1 1 1 1 1 1 1 1 1 1 1 1 1 1 0 0 0 1 1
0 0 0 0 0 0 0 0 0 0 0 0 0 0 0 0 0 0 0 0 0 0 0 1 1 1 1 1 1 1 1 1 1 1 1 1 1 1 1 1 1 1 1 1
0 0 0 0 0 0 0 0 0 0 0 0 0 0 0 0 0 0 0 0 0 0 1 1 1 1 1 1 1 1 1 1 1 1 1 1 1 1 1 1 1 1 1 1
0 0 0 0 0 0 0 0 0 0 0 0 0 0 0 0 0 0 0 0 0 1 1 1 1 1 1 1 1 1 1 1 1 1 1 1 1 1 1 1 1 1 1 1
0 0 0 0 0 0 0 0 0 0 0 0 0 0 0 0 0 0 0 0 1 1 1 1 1 1 1 1 1 1 1 1 1 1 1 1 1 1 1 1 1 1 1 1
0 0 0 0 0 0 0 0 0 0 0 0 0 0 0 0 0 0 0 1 1 1 1 1 1 1 1 1 1 1 1 1 1 1 1 1 1 1 1 1 1 1 1 1
0 0 0 0 0 0 0 0 0 0 0 0 0 0 0 0 0 0 1 1 1 1 1 1 1 1 1 1 1 1 1 1 1 1 1 1 1 1 1 1 1 1 1 1
0 0 0 0 0 0 0 0 0 0 0 0 0 0 0 0 0 0 1 1 1 1 1 1 1 1 1 1 1 1 1 1 1 1 1 1 1 1 1 1 1 1 1 1
0 0 0 0 0 0 0 0 0 0 0 0 0 0 0 0 0 1 1 1 1 1 1 2 2 2 2 2 2 2 2 2 1 1 1 1 1 1 1 1 1 1 1 1
0 0 0 0 0 0 0 0 0 0 0 0 0 0 0 0 1 1 1 1 1 1 1 2 2 2 2 2 2 2 2 2 2 1 1 1 1 1 1 1 1 1 1 1
0 0 0 0 0 0 0 0 0 0 0 0 0 0 0 1 1 1 1 1 1 1 1 2 2 2 2 2 2 2 2 2 2 2 1 1 1 1 1 1 1 1 1 1
0 0 0 0 0 0 0 0 0 0 0 0 0 0 1 1 1 1 1 2 1 1 2 2 2 2 2 2 3 3 2 2 2 2 2 1 1 1 1 1 1 1 1 1
0 0 0 0 0 0 0 0 0 0 0 0 1 1 1 1 1 1 1 1 2 2 2 2 2 2 2 3 3 3 3 2 2 2 2 2 1 1 1 1 1 1 1 1
0 0 0 0 0 0 0 0 0 0 0 1 1 1 1 1 1 1 1 2 2 2 2 2 2 2 2 3 3 3 3 2 2 2 2 1 1 1 1 1 1 1 1 1
0 0 0 0 0 0 0 0 0 1 1 1 1 1 1 1 1 1 2 2 2 2 2 2 2 2 2 3 3 3 3 2 2 2 2 2 1 1 1 1 1 1 1 1
0 0 0 0 0 0 0 1 1 1 1 1 1 1 1 2 2 2 2 2 2 2 2 2 2 2 2 3 3 3 2 2 2 2 2 2 1 1 1 1 1 1 1 1
0 0 0 0 0 1 1 1 1 1 1 1 1 1 1 1 1 2 2 2 2 2 2 2 2 2 3 3 3 3 2 2 2 2 2 2 2 1 1 1 1 1 1 1
0 0 0 0 1 1 1 1 1 1 1 1 1 1 1 1 1 1 1 1 1 1 2 2 2 2 2 2 2 2 2 2 2 2 2 2 2 1 1 1 1 1 1 1
0 0 0 1 1 0 0 1 1 1 1 1 1 1 1 1 1 1 1 1 1 1 1 2 2 2 2 2 2 2 2 2 2 2 2 1 1 1 1 1 1 1 1 1
0 0 0 1 1 0 0 0 1 1 1 1 1 1 1 1 1 1 1 1 1 1 1 2 2 2 2 2 2 2 2 2 2 2 2 1 1 1 1 1 1 1 0 0
Wind_Speed
11 11 10 9 10 9 7 6 5 4 6 6 6 8 11 12 11 10 11 10 10 10 11 10 9 10 9 8 7 6 5 4 2 2 2 2 2 2 2 3 3 3 3 3
12 12 11 10 10 9 8 7 6 5 5 4 5 6 8 11 11 10 11 11 11 11 11 11 10 10 10 9 8 7 5 5 4 2 1 1 2 2 2 3 3 3 2 2
14 11 12 12 11 10 10 9 5 5 5 6 6 6 8 10 10 10 10 11 12 12 11 11 10 10 10 10 9 8 6 5 4 3 2 2 2 1 2 3 2 2 2 2
12 13 12 12 12 11 8 8 8 7 7 6 7 5 9 11 10 11 11 12 12 12 12 11 10 9 10 11 10 8 7 6 4 3 2 3 3 3 3 2 2 3 2 2
12 13 13 12 11 11 9 10 9 8 7 7 8 6 7 9 10 11 11 12 13 12 13 12 11 10 9 10 10 9 8 6 5 4 3 2 2 2 2 2 3 2 2 1
13 14 12 12 12 11 9 10 9 9 9 9 10 8 5 8 10 11 11 12 13 13 13 13 12 10 9 9 10 9 8 7 6 5 4 3 2 2 2 2 2 2 2 2
15 15 13 12 13 11 10 8 6 8 8 8 7 7 4 8 9 9 11 11 12 12 13 13 13 12 10 9 9 9 9 7 6 6 4 4 3 3 2 2 2 2 1 2
15 15 15 14 13 10 11 11 8 8 7 5 5 5 3 6 9 10 10 11 11 12 12 12 13 12 11 10 9 10 10 8 7 6 5 4 4 3 2 2 1 1 1 1
11 12 14 14 13 13 13 13 13 11 9 6 4 3 3 6 8 10 11 11 12 11 12 12 13 12 12 11 9 10 10 9 8 7 6 4 4 2 2 2 2 1 1 2
11 10 11 12 12 14 14 13 9 9 7 6 7 6 4 6 7 9 11 10 10 11 11 11 11 11 11 10 9 9 10 9 8 7 6 6 5 4 3 2 2 2 1 2
12 10 10 11 13 13 13 13 10 7 7 8 6 3 4 6 7 8 10 10 10 11 10 11 10 11 11 11 11 10 10 9 8 7 6 5 5 5 4 3 2 2 2 2
10 9 10 11 11 13 13 13 12 8 7 8 6 2 2 6 7 6 8 10 10 9 9 10 10 10 10 10 11 10 10 9 8 7 6 6 5 5 5 4 3 3 3 2
5 8 9 10 11 13 14 14 13 11 8 8 7 3 4 4 7 8 7 9 9 9 9 9 8 8 8 8 8 9 9 9 9 8 7 7 6 5 4 4 3 3 2 2
5 9 11 12 9 10 13 13 12 12 9 9 7 6 5 5 6 7 7 7 9 9 8 8 7 6 7 7 7 7 8 9 8 8 8 6 6 5 5 4 4 3 2 2
7 10 12 14 14 12 13 13 13 12 12 10 7 7 6 4 4 4 7 7 8 8 7 8 7 6 6 7 7 7 7 7 8 7 6 6 6 5 4 4 4 4 3 3
6 8 11 14 14 13 13 13 13 13 12 9 7 4 2 2 4 3 4 6 6 7 7 7 7 6 6 7 7 7 7 7 7 7 7 6 6 6 5 4 4 4 3 3
7 7 10 12 13 12 13 12 13 12 11 9 7 4 3 1 2 4 3 5 5 6 7 6 6 6 5 6 7 7 7 7 7 7 7 6 6 6 5 5 5 4 3 3
7 7 7 10 11 13 9 8 9 9 8 7 5 4 3 3 1 3 5 4 4 5 6 5 5 5 6 6 7 7 8 7 7 7 7 7 6 5 5 5 4 4 3 3
9 7 8 9 11 11 9 6 6 6 6 4 2 3 3 3 2 4 5 5 4 4 4 4 4 4 4 5 7 8 8 7 7 7 7 7 6 6 5 5 4 4 3 3
10 7 8 9 9 10 5 5 6 6 5 1 2 2 3 3 3 2 4 4 5 4 4 3 4 4 4 4 6 7 7 7 7 6 6 6 6 6 5 5 4 4 3 3
10 10 11 12 10 6 4 6 6 6 2 1 2 2 1 1 3 4 5 5 4 5 5 4 4 3 4 5 5 6 6 6 5 5 5 5 5 5 5 4 4 3 3 3
8 8 9 10 10 5 3 2 1 1 2 2 2 4 5 5 5 5 5 5 5 4 4 4 3 3 3 5 5 5 5 5 5 5 5 5 5 5 5 5 4 4 4 4
4 3 3 3 1 3 5 5 4 2 2 3 3 5 5 5 4 5 5 5 5 4 3 3 3 3 3 4 4 4 4 4 5 5 5 5 5 4 4 6 5 5 4 4
1 2 1 2 2 3 4 4 4 3 1 1 3 4 5 5 5 5 5 5 4 4 3 2 3 3 3 3 3 3 3 4 5 5 5 5 5 5 4 3 4 4 4 4
3 3 1 2 1 2 2 3 3 3 4 5 5 6 5 5 5 4 4 3 3 3 3 2 2 2 2 2 2 2 3 5 5 5 5 5 5 5 4 4 2 3 2 3
2 3 2 1 2 2 2 2 3 4 4 5 5 5 5 5 4 4 3 3 3 3 2 2 1 2 1 1 2 2 3 5 5 5 5 5 5 5 5 4 3 3 2 4
Wind_Direction
210 222 221 216 217 222 225 214 193 183 168 182 173 165 170 171 175 170 166 164 165 164 158 154 156 151 147 144 143 142 145 139 140 133 145 147 143 135 129 131 124 119 114 121
216 219 223 219 224 230 234 227 197 168 175 191 176 178 176 175 178 173 170 167 170 166 160 157 161 160 156 152 151 150 154 151 155 148 141 135 119 116 119 101 98 104 109 114
225 220 215 218 223 224 225 229 218 198 207 221 197 193 187 179 179 174 174 170 169 168 166 163 164 166 161 159 160 162 159 158 161 158 156 142 126 109 96 107 111 104 102 97
226 229 226 218 223 229 229 224 225 212 218 230 223 208 191 182 180 179 177 174 171 169 166 165 166 167 165 161 160 154 154 156 152 155 163 165 149 143 133 137 135 130 120 118
222 225 230 229 224 227 233 231 228 221 230 250 244 237 193 182 185 181 180 175 172 170 167 168 168 166 164 159 155 155 153 154 154 163 169 163 156 150 142 139 139 132 125 136
231 230 228 234 235 230 231 241 241 235 237 238 242 241 195 193 188 183 179 177 172 167 166 163 160 157 159 156 153 152 149 156 160 167 167 163 162 150 133 141 145 152 153 155
229 229 224 223 232 221 227 236 237 238 233 235 233 234 184 187 173 174 177 172 165 163 162 160 158 158 160 157 153 151 152 157 164 168 172 170 167 169 171 171 168 172 155 133
220 222 216 219 225 223 225 231 233 244 241 241 229 233 183 176 164 169 167 160 164 162 159 160 161 161 161 162 158 155 155 160 167 168 165 171 172 184 175 168 174 147 128 104
235 227 215 216 223 223 224 229 238 249 254 252 234 205 197 164 162 164 158 161 167 165 161 163 163 162 162 165 164 160 156 161 167 170 165 169 157 158 153 143 155 151 146 137
253 251 225 207 219 224 233 237 235 243 255 253 245 209 200 172 167 168 162 165 160 154 159 160 160 158 162 162 161 161 160 163 167 173 177 170 163 165 162 162 135 115 104 99
251 251 243 218 216 227 226 235 243 252 259 249 242 223 170 175 172 172 166 163 155 157 160 158 160 162 166 167 165 165 161 161 169 173 165 161 161 164 166 172 163 146 138 134
250 251 248 233 224 233 237 235 236 238 247 260 265 232 200 175 166 158 164 153 150 155 156 156 157 159 165 170 166 165 164 165 167 163 161 165 165 168 170 169 156 144 153 153
265 266 248 233 221 220 234 234 238 242 246 250 250 206 205 194 155 155 159 150 151 151 153 150 150 152 157 162 160 162 165 167 166 165 165 169 170 167 165 159 150 149 149 144
257 251 255 247 240 225 229 235 236 241 243 245 238 197 205 192 161 150 145 146 148 145 146 146 143 146 149 151 150 158 166 163 164 165 165 165 164 160 159 157 153 147 139 130
254 252 256 261 264 252 239 237 236 239 245 248 229 209 195 184 153 150 148 150 147 148 151 143 141 145 151 155 156 159 160 156 157 157 156 155 152 150 149 148 140 137 142 139
248 267 265 259 259 262 249 238 239 241 247 239 236 236 185 167 136 139 143 147 149 150 151 147 145 145 154 158 161 158 156 154 153 157 157 157 156 153 149 145 143 141 133 125
245 257 262 257 253 257 249 239 238 236 241 250 239 208 188 157 124 156 143 144 145 149 146 146 150 153 158 162 159 159 156 151 152 153 154 155 156 154 154 156 147 146 136 131
252 263 256 257 255 247 252 250 245 247 246 240 230 196 192 151 154 105 105 105 121 135 136 136 148 164 171 168 160 158 155 154 157 160 161 158 157 156 155 150 147 148 145 147
235 240 253 248 247 243 248 258 260 258 255 254 229 181 155 129 114 104 98 97 97 100 114 131 151 154 147 153 151 150 156 158 164 167 162 159 158 156 159 159 162 164 161 159
226 221 242 248 248 244 246 275 283 253 231 216 157 136 142 165 212 126 88 91 94 94 96 105 118 125 127 131 138 150 160 163 170 166 161 158 160 160 166 168 170 170 170 176
216 218 230 246 247 243 302 299 284 243 225 47 148 148 172 73 59 71 66 73 86 90 88 89 104 125 139 140 142 152 159 166 165 158 157 161 162 164 168 164 162 166 179 189
216 220 224 238 243 236 347 308 321 4 14 45 65 72 74 77 82 77 75 74 81 89 97 102 111 122 136 146 153 160 168 162 157 159 162 163 165 177 174 165 174 187 192 198
231 246 241 250 228 70 38 44 49 34 33 33 61 89 92 86 75 75 75 73 72 77 95 115 123 119 122 139 156 167 167 157 158 160 162 162 165 173 177 178 184 196 195 204
249 319 219 122 105 86 59 56 48 28 8 68 70 77 87 87 77 69 66 67 62 63 81 96 112 114 124 134 150 168 162 157 159 164 163 165 171 175 173 182 190 196 194 203
321 308 295 97 101 86 66 45 65 72 58 56 66 74 77 81 80 78 72 65 55 50 63 73 86 105 120 131 151 168 169 167 171 171 169 179 184 175 175 178 188 206 182 202
328 331 326 54 52 27 51 36 46 62 59 61 66 64 66 74 75 71 69 70 53 49 53 75 103 117 124 148 173 175 173 174 176 179 179 188 192 179 179 174 160 67 100 114